Weather History for Ironwood, MI

Change the Weather History Date:

Saturday, July 6, 2013

  Actual Average Record
Temperature  
Mean Temperature 78 °F -  
Max Temperature 87 °F 73 °F 87 °F (2002)
Min Temperature 71 °F 52 °F 42 °F (2001)
Cooling Degree Days 14    
Growing Degree Days 28 (Base 50)    
Moisture  
Dew Point 62 °F    
Average Humidity 59    
Maximum Humidity 78    
Minimum Humidity 43    
Precipitation  
Precipitation 0.00 in - - ()
Sea Level Pressure  
Sea Level Pressure 29.88 in    
Wind  
Wind Speed 12 mph (SSW)    
Max Wind Speed 17 mph    
Max Gust Speed 26 mph    
Visibility 10 miles    
Events      
Averages and records for this station are not official NWS values.
T = Trace of Precipitation, MM = Missing Value Source: NWS Daily Summary

Daily Weather History Graph

Daily Weather History Graph

Search for Another Location

Airport:

Trip Planner

Search our weather history database for the weather conditions in past years. The results will help you decide how hot, cold, wet, or windy it might be!

Date:

Astronomy

Jul. 06, 2013 Rise Set
Actual Time 5:14 AM CDT 8:55 PM CDT
Civil Twilight 4:36 AM CDT 9:33 PM CDT
Nautical Twilight 3:44 AM CDT 10:25 PM CDT
Astronomical Twilight 2:33 AM CDT 11:35 PM CDT
Moon 4:04 AM CDT (7/6) 7:33 PM CDT (7/6)
Length of Visible Light 16h 57m
Length of Day
15h 40m
Waning Crescent, 2% of the Moon is Illuminated
Jul 6
Waning Crescent
Jul 8
New
Jul 15
First Quarter
Jul 22
Full
Jul 29
Last Quarter

Hourly Weather History & Observations

Time (CDT) Temp. Heat Index Dew Point Humidity Pressure Visibility Wind Dir Wind Speed Gust Speed Precip Events Conditions
12:15 AM 75.2 °F - 57.2 °F 53% 29.86 in 10.0 mi South 15.0 mph 23.0 mph N/A   Clear
12:35 AM 75.2 °F - 57.2 °F 53% 29.86 in 10.0 mi South 16.1 mph 23.0 mph N/A   Clear
12:55 AM 75.2 °F - 57.2 °F 53% 29.86 in 10.0 mi South 15.0 mph 23.0 mph N/A   Clear
1:15 AM 75.2 °F - 57.2 °F 53% 29.87 in 10.0 mi South 16.1 mph 24.2 mph N/A   Clear
1:35 AM 73.4 °F - 57.2 °F 57% 29.86 in 10.0 mi South 16.1 mph 26.5 mph N/A   Clear
1:55 AM 73.4 °F - 57.2 °F 57% 29.86 in 10.0 mi South 13.8 mph 26.5 mph N/A   Clear
2:15 AM 73.4 °F - 57.2 °F 57% 29.86 in 10.0 mi South 17.3 mph 25.3 mph N/A   Clear
2:35 AM 73.4 °F - 57.2 °F 57% 29.86 in 10.0 mi South 15.0 mph 20.7 mph N/A   Clear
2:55 AM 73.4 °F - 57.2 °F 57% 29.87 in 10.0 mi SSW 11.5 mph 19.6 mph N/A   Clear
3:15 AM 73.4 °F - 57.2 °F 57% 29.87 in 10.0 mi South 13.8 mph 23.0 mph N/A   Clear
3:35 AM 73.4 °F - 57.2 °F 57% 29.87 in 10.0 mi SSW 10.4 mph 21.9 mph N/A   Clear
3:55 AM 71.6 °F - 57.2 °F 60% 29.87 in 10.0 mi South 13.8 mph 20.7 mph N/A   Clear
4:15 AM 71.6 °F - 57.2 °F 60% 29.88 in 10.0 mi SSW 12.7 mph 20.7 mph N/A   Clear
4:35 AM 71.6 °F - 57.2 °F 60% 29.88 in 10.0 mi SSW 17.3 mph 21.9 mph N/A   Clear
4:55 AM 71.6 °F - 57.2 °F 60% 29.88 in 10.0 mi SSW 11.5 mph 21.9 mph N/A   Clear
5:15 AM 71.6 °F - 57.2 °F 60% 29.88 in 10.0 mi SSW 11.5 mph 21.9 mph N/A   Clear
5:35 AM 71.6 °F - 57.2 °F 60% 29.88 in 10.0 mi South 13.8 mph 18.4 mph N/A   Clear
5:55 AM 71.6 °F - 57.2 °F 60% 29.89 in 10.0 mi SSW 10.4 mph 18.4 mph N/A   Clear
6:15 AM 71.6 °F - 57.2 °F 60% 29.89 in 10.0 mi SSW 11.5 mph 17.3 mph N/A   Clear
6:35 AM 71.6 °F - 57.2 °F 60% 29.89 in 10.0 mi SSW 11.5 mph 19.6 mph N/A   Clear
6:55 AM 71.6 °F - 57.2 °F 60% 29.89 in 10.0 mi SSW 12.7 mph 17.3 mph N/A   Clear
7:15 AM 73.4 °F - 57.2 °F 57% 29.89 in 10.0 mi SSW 15.0 mph 19.6 mph N/A   Clear
7:35 AM 73.4 °F - 57.2 °F 57% 29.89 in 10.0 mi SSW 11.5 mph 21.9 mph N/A   Clear
7:55 AM 73.4 °F - 59.0 °F 61% 29.89 in 10.0 mi SSW 11.5 mph 18.4 mph N/A   Clear
8:15 AM 75.2 °F - 59.0 °F 57% 29.89 in 10.0 mi SW 11.5 mph 18.4 mph N/A   Clear
8:35 AM 75.2 °F - 60.8 °F 61% 29.89 in 10.0 mi SW 10.4 mph 17.3 mph N/A   Clear
8:55 AM 77.0 °F - 60.8 °F 57% 29.89 in 10.0 mi SW 13.8 mph 18.4 mph N/A   Clear
9:15 AM 77.0 °F - 60.8 °F 57% 29.89 in 10.0 mi SW 15.0 mph 19.6 mph N/A   Clear
9:35 AM 78.8 °F - 60.8 °F 54% 29.89 in 10.0 mi SW 11.5 mph 17.3 mph N/A   Clear
9:55 AM 78.8 °F - 60.8 °F 54% 29.89 in 10.0 mi SW 17.3 mph 21.9 mph N/A   Clear
10:15 AM 80.6 °F 81.5 °F 60.8 °F 51% 29.89 in 10.0 mi SSW 13.8 mph 19.6 mph N/A   Clear
10:35 AM 80.6 °F 81.5 °F 60.8 °F 51% 29.89 in 10.0 mi SSW 15.0 mph 19.6 mph N/A   Clear
10:55 AM 80.6 °F 81.5 °F 60.8 °F 51% 29.89 in 10.0 mi SSW 12.7 mph 19.6 mph N/A   Clear
11:15 AM 80.6 °F 81.8 °F 62.6 °F 54% 29.89 in 10.0 mi SW 12.7 mph - N/A   Clear
11:35 AM 82.4 °F 83.4 °F 62.6 °F 51% 29.89 in 10.0 mi SW 11.5 mph - N/A   Clear
11:55 AM 82.4 °F 83.4 °F 62.6 °F 51% 29.89 in 10.0 mi SSW 10.4 mph 18.4 mph N/A   Clear
12:15 PM 82.4 °F 83.4 °F 62.6 °F 51% 29.89 in 10.0 mi SSW 11.5 mph - N/A   Clear
12:35 PM 84.2 °F 85.0 °F 62.6 °F 48% 29.88 in 10.0 mi SSW 11.5 mph 18.4 mph N/A   Clear
12:55 PM 84.2 °F 85.0 °F 62.6 °F 48% 29.88 in 10.0 mi SSW 9.2 mph - N/A   Clear
1:15 PM 84.2 °F 85.0 °F 62.6 °F 48% 29.88 in 10.0 mi SSW 11.5 mph - N/A   Clear
1:35 PM 84.2 °F 85.0 °F 62.6 °F 48% 29.87 in 10.0 mi SSW 13.8 mph 18.4 mph N/A   Clear
1:55 PM 86.0 °F 86.6 °F 62.6 °F 45% 29.86 in 10.0 mi SSW 10.4 mph 18.4 mph N/A   Clear
2:15 PM 86.0 °F 86.1 °F 60.8 °F 43% 29.86 in 10.0 mi SW 12.7 mph 17.3 mph N/A   Clear
2:35 PM 84.2 °F 85.0 °F 62.6 °F 48% 29.86 in 10.0 mi SSW 9.2 mph - N/A   Partly Cloudy
2:55 PM 84.2 °F 85.0 °F 62.6 °F 48% 29.87 in 10.0 mi SW 5.8 mph - N/A   Scattered Clouds
3:15 PM 84.2 °F 85.0 °F 62.6 °F 48% 29.88 in 10.0 mi WSW 10.4 mph - N/A   Mostly Cloudy
3:35 PM 82.4 °F 83.4 °F 62.6 °F 51% 29.89 in 10.0 mi WNW 8.1 mph - N/A   Mostly Cloudy
3:55 PM 82.4 °F 84.6 °F 66.2 °F 58% 29.89 in 10.0 mi NNW 12.7 mph - N/A   Scattered Clouds
4:15 PM 80.6 °F 82.3 °F 64.4 °F 58% 29.89 in 10.0 mi NW 9.2 mph - N/A   Clear
4:35 PM 80.6 °F 82.3 °F 64.4 °F 58% 29.89 in 10.0 mi NW 5.8 mph - N/A   Clear
4:55 PM 80.6 °F 82.3 °F 64.4 °F 58% 29.89 in 7.0 mi NW 4.6 mph - N/A   Clear
5:15 PM 80.6 °F 82.7 °F 66.2 °F 61% 29.88 in 10.0 mi Calm Calm - N/A   Clear
5:35 PM 80.6 °F 82.7 °F 66.2 °F 61% 29.88 in 10.0 mi Calm Calm - N/A   Partly Cloudy
5:55 PM 80.6 °F 82.7 °F 66.2 °F 61% 29.88 in 10.0 mi NW 4.6 mph - N/A   Clear
6:15 PM 80.6 °F 82.7 °F 66.2 °F 61% 29.88 in 10.0 mi NW 5.8 mph - N/A   Clear
6:35 PM 78.8 °F - 66.2 °F 65% 29.87 in 10.0 mi North 3.5 mph - N/A   Clear
6:55 PM 78.8 °F - 66.2 °F 65% 29.87 in 10.0 mi East 3.5 mph - N/A   Partly Cloudy
7:15 PM 78.8 °F - 66.2 °F 65% 29.87 in 10.0 mi SE 3.5 mph - N/A   Clear
7:35 PM 77.0 °F - 69.8 °F 78% 29.87 in 10.0 mi SE 3.5 mph - N/A   Partly Cloudy
7:55 PM 78.8 °F - 66.2 °F 65% 29.87 in 10.0 mi Calm Calm - N/A   Clear
8:15 PM 77.0 °F - 66.2 °F 69% 29.87 in 10.0 mi North 3.5 mph - N/A   Clear
8:35 PM 75.2 °F - 66.2 °F 73% 29.88 in 10.0 mi Calm Calm - N/A   Clear
8:55 PM 75.2 °F - 66.2 °F 73% 29.88 in 10.0 mi Calm Calm - N/A   Scattered Clouds
9:15 PM 73.4 °F - 66.2 °F 78% 29.88 in 10.0 mi SE 6.9 mph - N/A   Mostly Cloudy
9:35 PM 73.4 °F - 66.2 °F 78% 29.88 in 10.0 mi SE 8.1 mph - N/A   Mostly Cloudy
9:55 PM 73.4 °F - 66.2 °F 78% 29.88 in 10.0 mi SE 6.9 mph - N/A   Scattered Clouds
10:15 PM 73.4 °F - 64.4 °F 73% 29.87 in 10.0 mi SE 9.2 mph - N/A   Clear
10:35 PM 73.4 °F - 64.4 °F 73% 29.86 in 10.0 mi SE 8.1 mph - N/A   Clear
10:55 PM 73.4 °F - 64.4 °F 73% 29.86 in 10.0 mi SSE 8.1 mph - N/A   Partly Cloudy
11:15 PM 75.2 °F - 64.4 °F 69% 29.85 in 10.0 mi South 9.2 mph - N/A   Clear
11:35 PM 75.2 °F - 64.4 °F 69% 29.85 in 10.0 mi South 10.4 mph 17.3 mph N/A   Partly Cloudy
11:55 PM 75.2 °F - 64.4 °F 69% 29.86 in 10.0 mi SW 9.2 mph - N/A   Mostly Cloudy